Time,TemperatureF,DewpointF,PressureIn,WindDirection,WindDirectionDegrees,WindSpeedMPH,WindSpeedGustMPH,Humidity,HourlyPrecipIn,Conditions,Clouds,dailyrainin,SoftwareType,DateUTC
2013-01-04 00:00:00,9.0,4.1,29.31,West,270,0.0,6.0,80,0.00,,,0.00,Weather View 32 v70,2013-01-04 05:00:00,
2013-01-04 00:02:00,9.0,4.1,29.31,West,270,0.0,6.0,80,0.00,,,0.00,Weather View 32 v70,2013-01-04 05:02:00,
2013-01-04 00:03:00,9.0,4.1,29.31,West,270,0.0,6.0,80,0.00,,,0.00,Weather View 32 v70,2013-01-04 05:03:00,
2013-01-04 00:08:00,9.0,4.1,29.33,West,270,1.0,6.0,80,0.00,,,0.00,Weather View 32 v70,2013-01-04 05:08:00,
2013-01-04 00:13:00,8.0,3.9,29.33,West,270,0.0,6.0,83,0.00,,,0.00,Weather View 32 v70,2013-01-04 05:13:00,
2013-01-04 00:18:00,8.0,4.2,29.32,West,270,1.0,6.0,84,0.00,,,0.00,Weather View 32 v70,2013-01-04 05:18:00,
2013-01-04 00:23:00,8.0,4.4,29.33,West,270,0.0,4.0,85,0.00,,,0.00,Weather View 32 v70,2013-01-04 05:23:00,
2013-01-04 00:28:00,7.0,4.4,29.32,NNE,22,1.0,3.0,89,0.00,,,0.00,Weather View 32 v70,2013-01-04 05:28:00,
2013-01-04 00:33:00,7.0,4.4,29.30,NNE,22,0.0,3.0,89,0.00,,,0.00,Weather View 32 v70,2013-01-04 05:33:00,
2013-01-04 00:38:00,7.0,4.4,29.31,NNE,22,0.0,3.0,89,0.00,,,0.00,Weather View 32 v70,2013-01-04 05:38:00,
2013-01-04 00:43:00,6.0,3.7,29.31,NNE,22,3.0,3.0,90,0.00,,,0.00,Weather View 32 v70,2013-01-04 05:43:00,
2013-01-04 00:48:00,6.0,3.9,29.30,NNE,22,3.0,3.0,91,0.00,,,0.00,Weather View 32 v70,2013-01-04 05:48:00,
2013-01-04 00:53:00,6.0,4.4,29.30,NNE,22,1.0,3.0,93,0.00,,,0.00,Weather View 32 v70,2013-01-04 05:53:00,
2013-01-04 00:58:00,5.0,3.7,29.29,NNE,22,0.0,3.0,94,0.00,,,0.00,Weather View 32 v70,2013-01-04 05:58:00,
2013-01-04 01:03:00,5.0,3.2,29.29,NNE,22,0.0,3.0,92,0.00,,,0.00,Weather View 32 v70,2013-01-04 06:03:00,
2013-01-04 01:08:00,5.0,3.4,29.30,NNE,22,0.0,3.0,93,0.00,,,0.00,Weather View 32 v70,2013-01-04 06:08:00,
2013-01-04 01:13:00,5.0,4.8,29.29,NE,45,4.0,4.0,99,0.00,,,0.00,Weather View 32 v70,2013-01-04 06:13:00,
2013-01-04 01:18:00,5.0,5.0,29.28,NE,45,1.0,5.0,100,0.00,,,0.00,Weather View 32 v70,2013-01-04 06:18:00,
2013-01-04 01:23:00,5.0,5.0,29.28,NE,45,0.0,5.0,100,0.00,,,0.00,Weather View 32 v70,2013-01-04 06:23:00,
2013-01-04 01:28:00,5.0,4.6,29.28,South,180,3.0,5.0,98,0.00,,,0.00,Weather View 32 v70,2013-01-04 06:28:00,
2013-01-04 01:33:00,5.0,4.8,29.28,SW,225,3.0,5.0,99,0.00,,,0.00,Weather View 32 v70,2013-01-04 06:33:00,
2013-01-04 01:38:00,5.0,4.8,29.30,SW,225,0.0,5.0,99,0.00,,,0.00,Weather View 32 v70,2013-01-04 06:38:00,
2013-01-04 01:43:00,4.0,4.0,29.30,SW,225,0.0,5.0,100,0.00,,,0.00,Weather View 32 v70,2013-01-04 06:43:00,
2013-01-04 01:48:00,4.0,4.0,29.29,SW,225,0.0,5.0,100,0.00,,,0.00,Weather View 32 v70,2013-01-04 06:48:00,
2013-01-04 01:53:00,3.0,3.0,29.29,SW,225,0.0,5.0,100,0.00,,,0.00,Weather View 32 v70,2013-01-04 06:53:00,
2013-01-04 01:58:00,3.0,3.0,29.28,SW,225,0.0,5.0,100,0.00,,,0.00,Weather View 32 v70,2013-01-04 06:58:00,
2013-01-04 02:03:00,3.0,3.0,29.29,SW,225,0.0,5.0,100,0.00,,,0.00,Weather View 32 v70,2013-01-04 07:03:00,
2013-01-04 02:08:00,3.0,3.0,29.28,SW,225,0.0,5.0,100,0.00,,,0.00,Weather View 32 v70,2013-01-04 07:08:00,
2013-01-04 02:13:00,3.0,3.0,29.28,SW,225,0.0,5.0,100,0.00,,,0.00,Weather View 32 v70,2013-01-04 07:13:00,
2013-01-04 02:18:00,3.0,3.0,29.26,SW,225,0.0,4.0,100,0.00,,,0.00,Weather View 32 v70,2013-01-04 07:18:00,
2013-01-04 02:23:00,3.0,3.0,29.25,SW,225,0.0,4.0,100,0.00,,,0.00,Weather View 32 v70,2013-01-04 07:23:00,
2013-01-04 02:28:00,3.0,3.0,29.25,SW,225,0.0,4.0,100,0.00,,,0.00,Weather View 32 v70,2013-01-04 07:28:00,
2013-01-04 02:33:00,3.0,3.0,29.25,SW,225,0.0,3.0,100,0.00,,,0.00,Weather View 32 v70,2013-01-04 07:33:00,
2013-01-04 02:38:00,3.0,3.0,29.24,SW,225,0.0,1.0,100,0.00,,,0.00,Weather View 32 v70,2013-01-04 07:38:00,
2013-01-04 02:43:00,2.0,2.0,29.24,SW,225,0.0,1.0,100,0.00,,,0.00,Weather View 32 v70,2013-01-04 07:43:00,
2013-01-04 02:48:00,2.0,2.0,29.23,SW,225,0.0,1.0,100,0.00,,,0.00,Weather View 32 v70,2013-01-04 07:48:00,
2013-01-04 02:53:00,2.0,2.0,29.23,SW,225,0.0,1.0,100,0.00,,,0.00,Weather View 32 v70,2013-01-04 07:53:00,
2013-01-04 02:58:00,1.0,1.0,29.23,SW,225,0.0,1.0,100,0.00,,,0.00,Weather View 32 v70,2013-01-04 07:58:00,
2013-01-04 03:03:00,1.0,1.0,29.22,SW,225,0.0,0.0,100,0.00,,,0.00,Weather View 32 v70,2013-01-04 08:03:00,
2013-01-04 03:08:00,1.0,1.0,29.22,SW,225,2.0,2.0,100,0.00,,,0.00,Weather View 32 v70,2013-01-04 08:08:00,
2013-01-04 03:13:00,1.0,1.0,29.22,North,360,3.0,5.0,100,0.00,,,0.00,Weather View 32 v70,2013-01-04 08:13:00,
2013-01-04 03:18:00,1.0,1.0,29.22,North,360,2.0,5.0,100,0.00,,,0.00,Weather View 32 v70,2013-01-04 08:18:00,
2013-01-04 03:23:00,1.0,1.0,29.22,NNW,337,1.0,5.0,100,0.00,,,0.00,Weather View 32 v70,2013-01-04 08:23:00,
2013-01-04 03:28:00,1.0,1.0,29.22,North,360,2.0,5.0,100,0.00,,,0.00,Weather View 32 v70,2013-01-04 08:28:00,
2013-01-04 03:33:00,1.0,1.0,29.22,NNE,22,2.0,5.0,100,0.00,,,0.00,Weather View 32 v70,2013-01-04 08:33:00,
2013-01-04 03:38:00,1.0,1.0,29.21,NNE,22,0.0,5.0,100,0.00,,,0.00,Weather View 32 v70,2013-01-04 08:38:00,
2013-01-04 03:43:00,1.0,1.0,29.22,NNE,22,0.0,5.0,100,0.00,,,0.00,Weather View 32 v70,2013-01-04 08:43:00,
2013-01-04 03:48:00,0.0,0.0,29.21,NNE,22,1.0,5.0,100,0.00,,,0.00,Weather View 32 v70,2013-01-04 08:48:00,
2013-01-04 03:53:00,0.0,0.0,29.21,NNE,22,2.0,5.0,100,0.00,,,0.00,Weather View 32 v70,2013-01-04 08:53:00,
2013-01-04 03:58:00,0.0,0.0,29.20,NNE,22,0.0,5.0,100,0.00,,,0.00,Weather View 32 v70,2013-01-04 08:58:00,
2013-01-04 04:03:00,0.0,0.0,29.20,NNE,22,1.0,5.0,100,0.00,,,0.00,Weather View 32 v70,2013-01-04 09:03:00,
2013-01-04 04:08:00,0.0,0.0,29.20,NNE,22,1.0,5.0,100,0.00,,,0.00,Weather View 32 v70,2013-01-04 09:08:00,
2013-01-04 04:13:00,0.0,0.0,29.20,NNE,22,0.0,5.0,100,0.00,,,0.00,Weather View 32 v70,2013-01-04 09:13:00,
2013-01-04 04:18:00,0.0,0.0,29.21,NNE,22,3.0,5.0,100,0.00,,,0.00,Weather View 32 v70,2013-01-04 09:18:00,
2013-01-04 04:23:00,0.0,0.0,29.20,NNE,22,2.0,5.0,100,0.00,,,0.00,Weather View 32 v70,2013-01-04 09:23:00,
2013-01-04 04:28:00,0.0,0.0,29.21,NNE,22,2.0,5.0,100,0.00,,,0.00,Weather View 32 v70,2013-01-04 09:28:00,
2013-01-04 04:33:00,0.0,0.0,29.20,NNE,22,0.0,4.0,100,0.00,,,0.00,Weather View 32 v70,2013-01-04 09:33:00,
2013-01-04 04:38:00,0.0,0.0,29.20,North,360,2.0,4.0,100,0.00,,,0.00,Weather View 32 v70,2013-01-04 09:38:00,
2013-01-04 04:43:00,-1.0,-1.0,29.20,North,360,3.0,4.0,100,0.00,,,0.00,Weather View 32 v70,2013-01-04 09:43:00,
2013-01-04 04:48:00,-1.0,-1.0,29.19,North,360,4.0,4.0,100,0.00,,,0.00,Weather View 32 v70,2013-01-04 09:48:00,
2013-01-04 04:53:00,-1.0,-1.0,29.19,North,360,1.0,4.0,100,0.00,,,0.00,Weather View 32 v70,2013-01-04 09:53:00,
2013-01-04 04:58:00,-1.0,-1.0,29.19,North,360,0.0,4.0,100,0.00,,,0.00,Weather View 32 v70,2013-01-04 09:58:00,
2013-01-04 05:03:00,-1.0,-1.0,29.18,North,360,3.0,4.0,100,0.00,,,0.00,Weather View 32 v70,2013-01-04 10:03:00,
2013-01-04 05:08:00,-1.0,-1.0,29.18,North,360,1.0,4.0,100,0.00,,,0.00,Weather View 32 v70,2013-01-04 10:08:00,
2013-01-04 05:13:00,-1.0,-1.0,29.19,North,360,2.0,5.0,100,0.00,,,0.00,Weather View 32 v70,2013-01-04 10:13:00,
2013-01-04 05:18:00,-1.0,-1.0,29.19,North,360,1.0,5.0,100,0.00,,,0.00,Weather View 32 v70,2013-01-04 10:18:00,
2013-01-04 05:23:00,-1.0,-1.0,29.19,North,360,2.0,5.0,100,0.00,,,0.00,Weather View 32 v70,2013-01-04 10:23:00,
2013-01-04 05:28:00,-1.0,-1.0,29.19,North,360,4.0,5.0,100,0.00,,,0.00,Weather View 32 v70,2013-01-04 10:28:00,
2013-01-04 05:33:00,-1.0,-1.0,29.18,North,360,0.0,5.0,100,0.00,,,0.00,Weather View 32 v70,2013-01-04 10:33:00,
2013-01-04 05:38:00,-1.0,-1.0,29.19,North,360,5.0,5.0,100,0.00,,,0.00,Weather View 32 v70,2013-01-04 10:38:00,
2013-01-04 05:43:00,-1.0,-1.0,29.19,North,360,3.0,5.0,100,0.00,,,0.00,Weather View 32 v70,2013-01-04 10:43:00,
2013-01-04 05:48:00,-1.0,-1.0,29.19,North,360,3.0,6.0,100,0.00,,,0.00,Weather View 32 v70,2013-01-04 10:48:00,
2013-01-04 05:53:00,-1.0,-1.0,29.19,North,360,3.0,6.0,100,0.00,,,0.00,Weather View 32 v70,2013-01-04 10:53:00,
2013-01-04 05:58:00,-1.0,-1.0,29.19,North,360,3.0,6.0,100,0.00,,,0.00,Weather View 32 v70,2013-01-04 10:58:00,
2013-01-04 06:03:00,-1.0,-1.0,29.19,NNE,22,2.0,6.0,100,0.00,,,0.00,Weather View 32 v70,2013-01-04 11:03:00,
2013-01-04 06:08:00,-1.0,-1.0,29.19,NNE,22,3.0,6.0,100,0.00,,,0.00,Weather View 32 v70,2013-01-04 11:08:00,
2013-01-04 06:13:00,-1.0,-1.0,29.18,NNE,22,1.0,6.0,100,0.00,,,0.00,Weather View 32 v70,2013-01-04 11:13:00,
2013-01-04 06:18:00,-1.0,-1.0,29.19,NNE,22,2.0,6.0,100,0.00,,,0.00,Weather View 32 v70,2013-01-04 11:18:00,
2013-01-04 06:23:00,-1.0,-1.0,29.19,NNE,22,2.0,6.0,100,0.00,,,0.00,Weather View 32 v70,2013-01-04 11:23:00,
2013-01-04 06:28:00,-1.0,-1.0,29.18,NNE,22,1.0,6.0,100,0.00,,,0.00,Weather View 32 v70,2013-01-04 11:28:00,
2013-01-04 06:33:00,-1.0,-1.0,29.15,NNE,22,0.0,6.0,100,0.00,,,0.00,Weather View 32 v70,2013-01-04 11:33:00,
2013-01-04 06:38:00,-1.0,-1.0,29.19,NNE,22,3.0,6.0,100,0.00,,,0.00,Weather View 32 v70,2013-01-04 11:38:00,
2013-01-04 06:43:00,-1.0,-1.0,29.19,NNW,337,4.0,6.0,100,0.00,,,0.00,Weather View 32 v70,2013-01-04 11:43:00,
2013-01-04 06:48:00,-1.0,-1.0,29.19,NNW,337,0.0,6.0,100,0.00,,,0.00,Weather View 32 v70,2013-01-04 11:48:00,
2013-01-04 06:53:00,-1.0,-1.0,29.19,NNW,337,1.0,6.0,100,0.00,,,0.00,Weather View 32 v70,2013-01-04 11:53:00,
2013-01-04 06:58:00,-1.0,-1.0,29.19,North,360,2.0,6.0,100,0.00,,,0.00,Weather View 32 v70,2013-01-04 11:58:00,
2013-01-04 07:03:00,-1.0,-1.0,29.19,North,360,1.0,5.0,100,0.00,,,0.00,Weather View 32 v70,2013-01-04 12:03:00,
2013-01-04 07:08:00,-1.0,-1.0,29.19,NNW,337,0.0,5.0,100,0.00,,,0.00,Weather View 32 v70,2013-01-04 12:08:00,
2013-01-04 07:13:00,-1.0,-1.0,29.19,NNW,337,0.0,5.0,100,0.00,,,0.00,Weather View 32 v70,2013-01-04 12:13:00,
2013-01-04 07:18:00,-1.0,-1.0,29.19,NNW,337,0.0,5.0,100,0.00,,,0.00,Weather View 32 v70,2013-01-04 12:18:00,
2013-01-04 07:23:00,0.0,0.0,29.19,North,360,0.0,5.0,100,0.00,,,0.00,Weather View 32 v70,2013-01-04 12:23:00,
2013-01-04 07:28:00,0.0,0.0,29.19,NNE,22,2.0,5.0,100,0.00,,,0.00,Weather View 32 v70,2013-01-04 12:28:00,
2013-01-04 07:33:00,0.0,0.0,29.20,NNW,337,3.0,5.0,100,0.00,,,0.00,Weather View 32 v70,2013-01-04 12:33:00,
2013-01-04 07:38:00,1.0,1.0,29.20,NW,315,1.0,5.0,100,0.00,,,0.00,Weather View 32 v70,2013-01-04 12:38:00,
2013-01-04 07:43:00,2.0,2.0,29.22,North,360,0.0,6.0,100,0.00,,,0.00,Weather View 32 v70,2013-01-04 12:43:00,
2013-01-04 07:48:00,2.0,2.0,29.23,NNW,337,0.0,6.0,100,0.00,,,0.00,Weather View 32 v70,2013-01-04 12:48:00,
2013-01-04 07:53:00,2.0,2.0,29.23,NNW,337,0.0,6.0,100,0.00,,,0.00,Weather View 32 v70,2013-01-04 12:53:00,
2013-01-04 07:58:00,2.0,2.0,29.23,NNW,337,0.0,6.0,100,0.00,,,0.00,Weather View 32 v70,2013-01-04 12:58:00,
2013-01-04 08:03:00,2.0,2.0,29.20,NNW,337,0.0,6.0,100,0.00,,,0.00,Weather View 32 v70,2013-01-04 13:03:00,
2013-01-04 08:08:00,3.0,3.0,29.22,SW,225,3.0,6.0,100,0.00,,,0.00,Weather View 32 v70,2013-01-04 13:08:00,
2013-01-04 08:13:00,4.0,4.0,29.22,SW,225,1.0,6.0,100,0.00,,,0.00,Weather View 32 v70,2013-01-04 13:13:00,
2013-01-04 08:18:00,5.0,5.0,29.23,SW,225,1.0,6.0,100,0.00,,,0.00,Weather View 32 v70,2013-01-04 13:18:00,
2013-01-04 08:23:00,5.0,5.0,29.24,SW,225,0.0,6.0,100,0.00,,,0.00,Weather View 32 v70,2013-01-04 13:23:00,
2013-01-04 08:28:00,6.0,6.0,29.23,SSW,202,0.0,6.0,100,0.00,,,0.00,Weather View 32 v70,2013-01-04 13:28:00,
2013-01-04 08:33:00,8.0,8.0,29.24,SSW,202,0.0,6.0,100,0.00,,,0.00,Weather View 32 v70,2013-01-04 13:33:00,
2013-01-04 08:38:00,8.0,8.0,29.25,SSW,202,0.0,6.0,100,0.00,,,0.00,Weather View 32 v70,2013-01-04 13:38:00,
2013-01-04 08:43:00,9.0,9.0,29.26,SSW,202,0.0,6.0,100,0.00,,,0.00,Weather View 32 v70,2013-01-04 13:43:00,
2013-01-04 08:48:00,10.0,10.0,29.26,SSW,202,0.0,6.0,100,0.00,,,0.00,Weather View 32 v70,2013-01-04 13:48:00,
2013-01-04 08:53:00,10.0,10.0,29.27,SSW,202,0.0,6.0,100,0.00,,,0.00,Weather View 32 v70,2013-01-04 13:53:00,
2013-01-04 08:58:00,11.0,11.0,29.27,SSW,202,0.0,6.0,100,0.00,,,0.00,Weather View 32 v70,2013-01-04 13:58:00,
2013-01-04 09:03:00,11.0,11.0,29.27,SSW,202,0.0,6.0,100,0.00,,,0.00,Weather View 32 v70,2013-01-04 14:03:00,
2013-01-04 09:08:00,12.0,12.0,29.28,SSW,202,3.0,6.0,100,0.00,,,0.00,Weather View 32 v70,2013-01-04 14:08:00,
2013-01-04 09:13:00,12.0,12.0,29.28,SSW,202,1.0,4.0,100,0.00,,,0.00,Weather View 32 v70,2013-01-04 14:13:00,
2013-01-04 09:18:00,13.0,13.0,29.29,SSW,202,2.0,4.0,100,0.00,,,0.00,Weather View 32 v70,2013-01-04 14:18:00,
2013-01-04 09:23:00,13.0,13.0,29.28,SSW,202,0.0,4.0,100,0.00,,,0.00,Weather View 32 v70,2013-01-04 14:23:00,
2013-01-04 09:28:00,14.0,14.0,29.29,SSW,202,1.0,4.0,100,0.00,,,0.00,Weather View 32 v70,2013-01-04 14:28:00,
2013-01-04 09:33:00,14.0,14.0,29.30,East,90,3.0,4.0,100,0.00,,,0.00,Weather View 32 v70,2013-01-04 14:33:00,
2013-01-04 09:38:00,15.0,14.5,29.30,East,90,0.0,4.0,98,0.00,,,0.00,Weather View 32 v70,2013-01-04 14:38:00,
2013-01-04 09:43:00,16.0,15.5,29.30,East,90,0.0,4.0,98,0.00,,,0.00,Weather View 32 v70,2013-01-04 14:43:00,
2013-01-04 09:48:00,16.0,15.3,29.31,East,90,0.0,4.0,97,0.00,,,0.00,Weather View 32 v70,2013-01-04 14:48:00,
2013-01-04 09:53:00,17.0,16.1,29.30,East,90,0.0,4.0,96,0.00,,,0.00,Weather View 32 v70,2013-01-04 14:53:00,
2013-01-04 09:58:00,18.0,16.8,29.31,East,90,0.0,4.0,95,0.00,,,0.00,Weather View 32 v70,2013-01-04 14:58:00,
2013-01-04 10:03:00,18.0,16.8,29.31,East,90,0.0,4.0,95,0.00,,,0.00,Weather View 32 v70,2013-01-04 15:03:00,
2013-01-04 10:08:00,19.0,17.8,29.31,East,90,0.0,4.0,95,0.00,,,0.00,Weather View 32 v70,2013-01-04 15:08:00,
2013-01-04 10:13:00,20.0,17.8,29.31,East,90,2.0,4.0,91,0.00,,,0.00,Weather View 32 v70,2013-01-04 15:13:00,
2013-01-04 10:18:00,20.0,17.0,29.32,SW,225,1.0,4.0,88,0.00,,,0.00,Weather View 32 v70,2013-01-04 15:18:00,
2013-01-04 10:23:00,20.0,17.0,29.32,SW,225,0.0,6.0,88,0.00,,,0.00,Weather View 32 v70,2013-01-04 15:23:00,
2013-01-04 10:28:00,20.0,16.8,29.32,SSW,202,5.0,6.0,87,0.00,,,0.00,Weather View 32 v70,2013-01-04 15:28:00,
2013-01-04 10:33:00,20.0,16.5,29.33,SW,225,2.0,7.0,86,0.00,,,0.00,Weather View 32 v70,2013-01-04 15:33:00,
2013-01-04 10:38:00,21.0,17.5,29.32,WSW,247,3.0,7.0,86,0.00,,,0.00,Weather View 32 v70,2013-01-04 15:38:00,
2013-01-04 10:43:00,21.0,17.2,29.31,SW,225,2.0,7.0,85,0.00,,,0.00,Weather View 32 v70,2013-01-04 15:43:00,
2013-01-04 10:48:00,22.0,17.4,29.31,SW,225,0.0,7.0,82,0.00,,,0.00,Weather View 32 v70,2013-01-04 15:48:00,
2013-01-04 10:53:00,22.0,17.4,29.31,SW,225,0.0,7.0,82,0.00,,,0.00,Weather View 32 v70,2013-01-04 15:53:00,
2013-01-04 10:58:00,23.0,18.0,29.32,SW,225,0.0,7.0,81,0.00,,,0.00,Weather View 32 v70,2013-01-04 15:58:00,
2013-01-04 11:03:00,23.0,17.5,29.32,SE,135,2.0,7.0,79,0.00,,,0.00,Weather View 32 v70,2013-01-04 16:03:00,
2013-01-04 11:08:00,23.0,17.8,29.32,SSE,157,6.0,7.0,80,0.00,,,0.00,Weather View 32 v70,2013-01-04 16:08:00,
2013-01-04 11:13:00,24.0,19.0,29.31,SSW,202,4.0,7.0,81,0.00,,,0.00,Weather View 32 v70,2013-01-04 16:13:00,
2013-01-04 11:18:00,24.0,19.3,29.32,SSW,202,0.0,7.0,82,0.00,,,0.00,Weather View 32 v70,2013-01-04 16:18:00,
2013-01-04 11:23:00,25.0,20.3,29.32,SW,225,0.0,7.0,82,0.00,,,0.00,Weather View 32 v70,2013-01-04 16:23:00,
2013-01-04 11:28:00,25.0,20.0,29.29,SW,225,5.0,9.0,81,0.00,,,0.00,Weather View 32 v70,2013-01-04 16:28:00,
2013-01-04 11:33:00,26.0,21.0,29.32,WSW,247,5.0,10.0,81,0.00,,,0.00,Weather View 32 v70,2013-01-04 16:33:00,
2013-01-04 11:38:00,26.0,21.0,29.33,SSW,202,3.0,10.0,81,0.00,,,0.00,Weather View 32 v70,2013-01-04 16:38:00,
2013-01-04 11:43:00,27.0,21.7,29.32,SW,225,3.0,10.0,80,0.00,,,0.00,Weather View 32 v70,2013-01-04 16:43:00,
2013-01-04 11:49:00,27.0,21.4,29.31,SW,225,5.0,10.0,79,0.00,,,0.00,Weather View 32 v70,2013-01-04 16:49:00,
2013-01-04 11:54:00,27.0,21.4,29.29,South,180,9.0,10.0,79,0.00,,,0.00,Weather View 32 v70,2013-01-04 16:54:00,
2013-01-04 11:59:00,27.0,21.4,29.29,West,270,6.0,10.0,79,0.00,,,0.00,Weather View 32 v70,2013-01-04 16:59:00,
2013-01-04 12:04:00,27.0,21.7,29.31,SSE,157,2.0,13.0,80,0.00,,,0.00,Weather View 32 v70,2013-01-04 17:04:00,
2013-01-04 12:09:00,27.0,21.7,29.30,West,270,6.0,13.0,80,0.00,,,0.00,Weather View 32 v70,2013-01-04 17:09:00,
2013-01-04 12:14:00,27.0,21.7,29.31,West,270,10.0,13.0,80,0.00,,,0.00,Weather View 32 v70,2013-01-04 17:14:00,
2013-01-04 12:19:00,27.0,21.7,29.30,WNW,292,5.0,13.0,80,0.00,,,0.00,Weather View 32 v70,2013-01-04 17:19:00,
2013-01-04 12:24:00,27.0,21.7,29.30,WSW,247,8.0,13.0,80,0.00,,,0.00,Weather View 32 v70,2013-01-04 17:24:00,
2013-01-04 12:29:00,28.0,22.6,29.31,West,270,5.0,13.0,80,0.00,,,0.00,Weather View 32 v70,2013-01-04 17:29:00,
2013-01-04 12:34:00,28.0,22.6,29.30,ENE,67,0.0,13.0,80,0.00,,,0.00,Weather View 32 v70,2013-01-04 17:34:00,
2013-01-04 12:39:00,28.0,22.6,29.30,WSW,247,1.0,15.0,80,0.00,,,0.00,Weather View 32 v70,2013-01-04 17:39:00,
2013-01-04 12:44:00,28.0,22.6,29.29,WSW,247,7.0,15.0,80,0.00,,,0.00,Weather View 32 v70,2013-01-04 17:44:00,
2013-01-04 12:49:00,28.0,22.6,29.29,ESE,112,4.0,15.0,80,0.00,,,0.00,Weather View 32 v70,2013-01-04 17:49:00,
2013-01-04 12:54:00,28.0,22.6,29.29,West,270,5.0,15.0,80,0.00,,,0.00,Weather View 32 v70,2013-01-04 17:54:00,
2013-01-04 12:59:00,28.0,22.0,29.29,SW,225,6.0,15.0,78,0.00,,,0.00,Weather View 32 v70,2013-01-04 17:59:00,
2013-01-04 13:04:00,28.0,22.0,29.29,West,270,6.0,15.0,78,0.00,,,0.00,Weather View 32 v70,2013-01-04 18:04:00,
2013-01-04 13:09:00,28.0,22.0,29.29,WSW,247,2.0,15.0,78,0.00,,,0.00,Weather View 32 v70,2013-01-04 18:09:00,
2013-01-04 13:14:00,28.0,22.0,29.28,WSW,247,1.0,15.0,78,0.00,,,0.00,Weather View 32 v70,2013-01-04 18:14:00,
2013-01-04 13:19:00,28.0,22.0,29.28,SSW,202,3.0,15.0,78,0.00,,,0.00,Weather View 32 v70,2013-01-04 18:19:00,
2013-01-04 13:24:00,29.0,23.0,29.29,WSW,247,1.0,15.0,78,0.00,,,0.00,Weather View 32 v70,2013-01-04 18:24:00,
2013-01-04 13:29:00,29.0,22.7,29.28,WSW,247,2.0,15.0,77,0.00,,,0.00,Weather View 32 v70,2013-01-04 18:29:00,
2013-01-04 13:34:00,29.0,22.7,29.28,West,270,7.0,15.0,77,0.00,,,0.00,Weather View 32 v70,2013-01-04 18:34:00,
2013-01-04 13:39:00,29.0,22.4,29.28,WSW,247,2.0,13.0,76,0.00,,,0.00,Weather View 32 v70,2013-01-04 18:39:00,
2013-01-04 13:44:00,29.0,22.1,29.29,SSW,202,0.0,13.0,75,0.00,,,0.00,Weather View 32 v70,2013-01-04 18:44:00,
2013-01-04 13:49:00,29.0,22.1,29.28,West,270,4.0,13.0,75,0.00,,,0.00,Weather View 32 v70,2013-01-04 18:49:00,
2013-01-04 13:54:00,29.0,22.1,29.29,WNW,292,5.0,13.0,75,0.00,,,0.00,Weather View 32 v70,2013-01-04 18:54:00,
2013-01-04 13:59:00,29.0,22.1,29.29,WSW,247,5.0,12.0,75,0.00,,,0.00,Weather View 32 v70,2013-01-04 18:59:00,
2013-01-04 14:04:00,29.0,22.1,29.29,WSW,247,5.0,12.0,75,0.00,,,0.00,Weather View 32 v70,2013-01-04 19:04:00,
2013-01-04 14:09:00,29.0,22.1,29.29,West,270,2.0,13.0,75,0.00,,,0.00,Weather View 32 v70,2013-01-04 19:09:00,
2013-01-04 14:14:00,29.0,22.1,29.29,West,270,6.0,13.0,75,0.00,,,0.00,Weather View 32 v70,2013-01-04 19:14:00,
2013-01-04 14:19:00,29.0,22.1,29.29,WSW,247,8.0,13.0,75,0.00,,,0.00,Weather View 32 v70,2013-01-04 19:19:00,
2013-01-04 14:24:00,29.0,22.1,29.29,WSW,247,9.0,13.0,75,0.00,,,0.00,Weather View 32 v70,2013-01-04 19:24:00,
2013-01-04 14:29:00,29.0,22.1,29.29,WSW,247,3.0,13.0,75,0.00,,,0.00,Weather View 32 v70,2013-01-04 19:29:00,
2013-01-04 14:34:00,29.0,21.8,29.30,SW,225,13.0,14.0,74,0.00,,,0.00,Weather View 32 v70,2013-01-04 19:34:00,
2013-01-04 14:39:00,30.0,22.4,29.30,WNW,292,6.0,14.0,73,0.00,,,0.00,Weather View 32 v70,2013-01-04 19:39:00,
2013-01-04 14:44:00,30.0,22.4,29.31,SSW,202,5.0,14.0,73,0.00,,,0.00,Weather View 32 v70,2013-01-04 19:44:00,
2013-01-04 14:49:00,30.0,22.4,29.31,SW,225,4.0,14.0,73,0.00,,,0.00,Weather View 32 v70,2013-01-04 19:49:00,
2013-01-04 14:54:00,30.0,22.7,29.30,SE,135,5.0,14.0,74,0.00,,,0.00,Weather View 32 v70,2013-01-04 19:54:00,
2013-01-04 14:59:00,30.0,22.7,29.29,SW,225,6.0,14.0,74,0.00,,,0.00,Weather View 32 v70,2013-01-04 19:59:00,
2013-01-04 15:04:00,30.0,22.7,29.29,NE,45,3.0,14.0,74,0.00,,,0.00,Weather View 32 v70,2013-01-04 20:04:00,
2013-01-04 15:09:00,31.0,23.4,29.29,WSW,247,8.0,14.0,73,0.00,,,0.00,Weather View 32 v70,2013-01-04 20:09:00,
2013-01-04 15:14:00,30.0,22.4,29.29,West,270,6.0,14.0,73,0.00,,,0.00,Weather View 32 v70,2013-01-04 20:14:00,
2013-01-04 15:19:00,30.0,22.7,29.30,West,270,3.0,14.0,74,0.00,,,0.00,Weather View 32 v70,2013-01-04 20:19:00,
2013-01-04 15:24:00,30.0,22.7,29.29,WSW,247,6.0,14.0,74,0.00,,,0.00,Weather View 32 v70,2013-01-04 20:24:00,
2013-01-04 15:29:00,30.0,23.0,29.27,SW,225,0.0,14.0,75,0.00,,,0.00,Weather View 32 v70,2013-01-04 20:29:00,
2013-01-04 15:34:00,30.0,23.0,29.29,SW,225,1.0,13.0,75,0.00,,,0.00,Weather View 32 v70,2013-01-04 20:34:00,
2013-01-04 15:39:00,30.0,23.4,29.28,West,270,2.0,13.0,76,0.00,,,0.00,Weather View 32 v70,2013-01-04 20:39:00,
2013-01-04 15:44:00,30.0,23.7,29.28,South,180,0.0,12.0,77,0.00,,,0.00,Weather View 32 v70,2013-01-04 20:44:00,
2013-01-04 15:49:00,29.0,22.7,29.28,SW,225,0.0,12.0,77,0.00,,,0.00,Weather View 32 v70,2013-01-04 20:49:00,
2013-01-04 15:54:00,29.0,22.7,29.28,WSW,247,1.0,12.0,77,0.00,,,0.00,Weather View 32 v70,2013-01-04 20:54:00,
2013-01-04 15:59:00,29.0,23.0,29.28,SW,225,4.0,12.0,78,0.00,,,0.00,Weather View 32 v70,2013-01-04 20:59:00,
2013-01-04 16:04:00,29.0,23.3,29.28,WSW,247,6.0,12.0,79,0.00,,,0.00,Weather View 32 v70,2013-01-04 21:04:00,
2013-01-04 16:09:00,29.0,23.6,29.28,SSW,202,6.0,12.0,80,0.00,,,0.00,Weather View 32 v70,2013-01-04 21:09:00,
2013-01-04 16:14:00,29.0,23.6,29.25,SW,225,5.0,10.0,80,0.00,,,0.00,Weather View 32 v70,2013-01-04 21:14:00,
2013-01-04 16:19:00,29.0,23.6,29.25,SW,225,1.0,8.0,80,0.00,,,0.00,Weather View 32 v70,2013-01-04 21:19:00,
2013-01-04 16:24:00,29.0,23.6,29.27,SW,225,1.0,7.0,80,0.00,,,0.00,Weather View 32 v70,2013-01-04 21:24:00,
2013-01-04 16:29:00,29.0,23.9,29.27,SW,225,8.0,8.0,81,0.00,,,0.00,Weather View 32 v70,2013-01-04 21:29:00,
2013-01-04 16:34:00,29.0,23.9,29.25,SW,225,6.0,9.0,81,0.00,,,0.00,Weather View 32 v70,2013-01-04 21:34:00,
2013-01-04 16:39:00,29.0,24.2,29.27,WSW,247,6.0,9.0,82,0.00,,,0.00,Weather View 32 v70,2013-01-04 21:39:00,
2013-01-04 16:44:00,29.0,24.2,29.27,WSW,247,1.0,9.0,82,0.00,,,0.00,Weather View 32 v70,2013-01-04 21:44:00,
2013-01-04 16:49:00,29.0,24.2,29.27,SW,225,4.0,9.0,82,0.00,,,0.00,Weather View 32 v70,2013-01-04 21:49:00,
2013-01-04 16:54:00,29.0,24.2,29.27,SSW,202,0.0,9.0,82,0.00,,,0.00,Weather View 32 v70,2013-01-04 21:54:00,
2013-01-04 16:59:00,29.0,24.2,29.27,SW,225,4.0,9.0,82,0.00,,,0.00,Weather View 32 v70,2013-01-04 21:59:00,
2013-01-04 17:04:00,29.0,24.2,29.27,WSW,247,0.0,9.0,82,0.00,,,0.00,Weather View 32 v70,2013-01-04 22:04:00,
2013-01-04 17:09:00,29.0,24.2,29.25,WSW,247,2.0,9.0,82,0.00,,,0.00,Weather View 32 v70,2013-01-04 22:09:00,
2013-01-04 17:14:00,29.0,24.2,29.27,SW,225,4.0,9.0,82,0.00,,,0.00,Weather View 32 v70,2013-01-04 22:14:00,
2013-01-04 17:19:00,29.0,24.2,29.27,SW,225,4.0,9.0,82,0.00,,,0.00,Weather View 32 v70,2013-01-04 22:19:00,
2013-01-04 17:24:00,29.0,24.2,29.27,WSW,247,1.0,9.0,82,0.00,,,0.00,Weather View 32 v70,2013-01-04 22:24:00,
2013-01-04 17:29:00,29.0,24.2,29.27,WNW,292,3.0,9.0,82,0.00,,,0.00,Weather View 32 v70,2013-01-04 22:29:00,
2013-01-04 17:34:00,29.0,24.2,29.27,SW,225,1.0,9.0,82,0.00,,,0.00,Weather View 32 v70,2013-01-04 22:34:00,
2013-01-04 17:39:00,29.0,24.2,29.27,WSW,247,3.0,10.0,82,0.00,,,0.00,Weather View 32 v70,2013-01-04 22:39:00,
2013-01-04 17:44:00,29.0,23.9,29.27,WSW,247,7.0,10.0,81,0.00,,,0.00,Weather View 32 v70,2013-01-04 22:44:00,
2013-01-04 17:49:00,29.0,23.6,29.27,WSW,247,0.0,10.0,80,0.00,,,0.00,Weather View 32 v70,2013-01-04 22:49:00,
2013-01-04 17:54:00,29.0,23.3,29.27,WNW,292,0.0,10.0,79,0.00,,,0.00,Weather View 32 v70,2013-01-04 22:54:00,
2013-01-04 17:59:00,29.0,23.0,29.25,SW,225,0.0,10.0,78,0.00,,,0.00,Weather View 32 v70,2013-01-04 22:59:00,
2013-01-04 18:04:00,30.0,24.0,29.25,WNW,292,6.0,10.0,78,0.00,,,0.00,Weather View 32 v70,2013-01-04 23:04:00,
2013-01-04 18:09:00,30.0,23.7,29.28,SW,225,2.0,12.0,77,0.00,,,0.00,Weather View 32 v70,2013-01-04 23:09:00,
2013-01-04 18:14:00,30.0,23.4,29.27,SW,225,7.0,13.0,76,0.00,,,0.00,Weather View 32 v70,2013-01-04 23:14:00,
2013-01-04 18:19:00,30.0,23.4,29.28,WSW,247,4.0,13.0,76,0.00,,,0.00,Weather View 32 v70,2013-01-04 23:19:00,
2013-01-04 18:24:00,30.0,23.0,29.28,SW,225,7.0,13.0,75,0.00,,,0.00,Weather View 32 v70,2013-01-04 23:24:00,
2013-01-04 18:29:00,30.0,23.0,29.27,SSE,157,3.0,13.0,75,0.00,,,0.00,Weather View 32 v70,2013-01-04 23:29:00,
2013-01-04 18:34:00,30.0,23.0,29.27,SSW,202,6.0,13.0,75,0.00,,,0.00,Weather View 32 v70,2013-01-04 23:34:00,
2013-01-04 18:39:00,30.0,23.0,29.27,SW,225,6.0,13.0,75,0.00,,,0.00,Weather View 32 v70,2013-01-04 23:39:00,
2013-01-04 18:44:00,30.0,23.4,29.27,SW,225,3.0,13.0,76,0.00,,,0.00,Weather View 32 v70,2013-01-04 23:44:00,
2013-01-04 18:49:00,30.0,23.4,29.27,SW,225,3.0,13.0,76,0.00,,,0.00,Weather View 32 v70,2013-01-04 23:49:00,
2013-01-04 18:54:00,30.0,23.4,29.27,WSW,247,6.0,13.0,76,0.00,,,0.00,Weather View 32 v70,2013-01-04 23:54:00,
2013-01-04 18:59:00,30.0,23.0,29.27,WSW,247,2.0,13.0,75,0.00,,,0.00,Weather View 32 v70,2013-01-04 23:59:00,
2013-01-04 19:04:00,30.0,23.0,29.28,South,180,0.0,13.0,75,0.00,,,0.00,Weather View 32 v70,2013-01-05 00:04:00,
2013-01-04 19:09:00,30.0,23.0,29.28,WSW,247,4.0,13.0,75,0.00,,,0.00,Weather View 32 v70,2013-01-05 00:09:00,
2013-01-04 19:14:00,30.0,23.0,29.28,South,180,4.0,13.0,75,0.00,,,0.00,Weather View 32 v70,2013-01-05 00:14:00,
2013-01-04 19:19:00,30.0,23.0,29.27,SE,135,1.0,13.0,75,0.00,,,0.00,Weather View 32 v70,2013-01-05 00:19:00,
2013-01-04 19:24:00,30.0,23.0,29.28,SSW,202,0.0,13.0,75,0.00,,,0.00,Weather View 32 v70,2013-01-05 00:24:00,
2013-01-04 19:29:00,30.0,23.0,29.28,West,270,4.0,13.0,75,0.00,,,0.00,Weather View 32 v70,2013-01-05 00:29:00,
2013-01-04 19:34:00,30.0,23.0,29.28,South,180,2.0,13.0,75,0.00,,,0.00,Weather View 32 v70,2013-01-05 00:34:00,
2013-01-04 19:39:00,30.0,23.0,29.28,WSW,247,6.0,13.0,75,0.00,,,0.00,Weather View 32 v70,2013-01-05 00:39:00,
2013-01-04 19:44:00,30.0,23.0,29.28,SW,225,4.0,13.0,75,0.00,,,0.00,Weather View 32 v70,2013-01-05 00:44:00,
2013-01-04 19:49:00,30.0,23.0,29.29,SW,225,4.0,13.0,75,0.00,,,0.00,Weather View 32 v70,2013-01-05 00:49:00,
2013-01-04 19:54:00,30.0,23.0,29.28,WSW,247,2.0,13.0,75,0.00,,,0.00,Weather View 32 v70,2013-01-05 00:54:00,
2013-01-04 19:59:00,30.0,23.0,29.28,WSW,247,2.0,11.0,75,0.00,,,0.00,Weather View 32 v70,2013-01-05 00:59:00,
2013-01-04 20:04:00,30.0,23.0,29.29,SW,225,1.0,11.0,75,0.00,,,0.00,Weather View 32 v70,2013-01-05 01:04:00,
2013-01-04 20:09:00,30.0,23.4,29.29,WSW,247,7.0,11.0,76,0.00,,,0.00,Weather View 32 v70,2013-01-05 01:09:00,
2013-01-04 20:14:00,30.0,23.4,29.28,WSW,247,3.0,11.0,76,0.00,,,0.00,Weather View 32 v70,2013-01-05 01:14:00,
2013-01-04 20:19:00,30.0,23.4,29.29,WSW,247,2.0,11.0,76,0.00,,,0.00,Weather View 32 v70,2013-01-05 01:19:00,
2013-01-04 20:25:00,30.0,23.4,29.28,WSW,247,2.0,11.0,76,0.00,,,0.00,Weather View 32 v70,2013-01-05 01:25:00,
2013-01-04 20:30:00,30.0,23.7,29.28,West,270,3.0,9.0,77,0.00,,,0.00,Weather View 32 v70,2013-01-05 01:30:00,
2013-01-04 20:35:00,30.0,23.7,29.28,WSW,247,1.0,9.0,77,0.00,,,0.00,Weather View 32 v70,2013-01-05 01:35:00,
2013-01-04 20:40:00,31.0,24.6,29.29,West,270,4.0,10.0,77,0.00,,,0.00,Weather View 32 v70,2013-01-05 01:40:00,
2013-01-04 20:45:00,31.0,24.3,29.29,WSW,247,2.0,10.0,76,0.00,,,0.00,Weather View 32 v70,2013-01-05 01:45:00,
2013-01-04 20:50:00,31.0,24.3,29.28,SSW,202,0.0,10.0,76,0.00,,,0.00,Weather View 32 v70,2013-01-05 01:50:00,
2013-01-04 20:55:00,31.0,24.3,29.28,WNW,292,0.0,10.0,76,0.00,,,0.00,Weather View 32 v70,2013-01-05 01:55:00,
2013-01-04 21:00:00,31.0,24.3,29.28,WSW,247,1.0,10.0,76,0.00,,,0.00,Weather View 32 v70,2013-01-05 02:00:00,
2013-01-04 21:05:00,31.0,24.3,29.28,SSE,157,2.0,10.0,76,0.00,,,0.00,Weather View 32 v70,2013-01-05 02:05:00,
2013-01-04 21:10:00,31.0,24.3,29.28,West,270,2.0,10.0,76,0.00,,,0.00,Weather View 32 v70,2013-01-05 02:10:00,
2013-01-04 21:15:00,31.0,24.0,29.28,WNW,292,6.0,10.0,75,0.00,,,0.00,Weather View 32 v70,2013-01-05 02:15:00,
2013-01-04 21:20:00,31.0,24.0,29.28,SE,135,2.0,10.0,75,0.00,,,0.00,Weather View 32 v70,2013-01-05 02:20:00,
2013-01-04 21:25:00,31.0,24.0,29.29,South,180,1.0,10.0,75,0.00,,,0.00,Weather View 32 v70,2013-01-05 02:25:00,
2013-01-04 21:30:00,31.0,24.0,29.29,West,270,2.0,10.0,75,0.00,,,0.00,Weather View 32 v70,2013-01-05 02:30:00,
2013-01-04 21:35:00,31.0,23.7,29.29,SW,225,4.0,12.0,74,0.00,,,0.00,Weather View 32 v70,2013-01-05 02:35:00,
2013-01-04 21:40:00,31.0,23.7,29.29,WSW,247,5.0,12.0,74,0.00,,,0.00,Weather View 32 v70,2013-01-05 02:40:00,
2013-01-04 21:45:00,31.0,23.7,29.29,South,180,2.0,12.0,74,0.00,,,0.00,Weather View 32 v70,2013-01-05 02:45:00,
2013-01-04 21:50:00,31.0,23.4,29.29,WNW,292,3.0,12.0,73,0.00,,,0.00,Weather View 32 v70,2013-01-05 02:50:00,
2013-01-04 21:55:00,32.0,24.3,29.29,WSW,247,4.0,12.0,73,0.00,,,0.00,Weather View 32 v70,2013-01-05 02:55:00,
2013-01-04 22:00:00,32.0,24.3,29.29,West,270,2.0,12.0,73,0.00,,,0.00,Weather View 32 v70,2013-01-05 03:00:00,
2013-01-04 22:05:00,32.0,24.3,29.29,SW,225,6.0,12.0,73,0.00,,,0.00,Weather View 32 v70,2013-01-05 03:05:00,
2013-01-04 22:10:00,32.0,24.3,29.29,WSW,247,9.0,12.0,73,0.00,,,0.00,Weather View 32 v70,2013-01-05 03:10:00,
2013-01-04 22:15:00,32.0,24.3,29.30,WSW,247,6.0,12.0,73,0.00,,,0.00,Weather View 32 v70,2013-01-05 03:15:00,
2013-01-04 22:20:00,32.0,24.3,29.30,WSW,247,3.0,12.0,73,0.00,,,0.00,Weather View 32 v70,2013-01-05 03:20:00,
2013-01-04 22:25:00,32.0,24.6,29.30,South,180,2.0,12.0,74,0.00,,,0.00,Weather View 32 v70,2013-01-05 03:25:00,
2013-01-04 22:30:00,32.0,24.6,29.29,WSW,247,4.0,12.0,74,0.00,,,0.00,Weather View 32 v70,2013-01-05 03:30:00,
2013-01-04 22:35:00,32.0,25.0,29.29,WSW,247,2.0,12.0,75,0.00,,,0.00,Weather View 32 v70,2013-01-05 03:35:00,
2013-01-04 22:40:00,32.0,25.0,29.30,West,270,1.0,12.0,75,0.00,,,0.00,Weather View 32 v70,2013-01-05 03:40:00,
2013-01-04 22:45:00,32.0,25.0,29.29,WSW,247,2.0,12.0,75,0.00,,,0.00,Weather View 32 v70,2013-01-05 03:45:00,
2013-01-04 22:50:00,32.0,25.0,29.30,SW,225,7.0,12.0,75,0.00,,,0.00,Weather View 32 v70,2013-01-05 03:50:00,
2013-01-04 22:55:00,32.0,25.0,29.29,WSW,247,1.0,12.0,75,0.00,,,0.00,Weather View 32 v70,2013-01-05 03:55:00,
2013-01-04 23:00:00,32.0,25.0,29.29,SW,225,3.0,12.0,75,0.00,,,0.00,Weather View 32 v70,2013-01-05 04:00:00,
2013-01-04 23:05:00,32.0,25.0,29.29,West,270,7.0,12.0,75,0.00,,,0.00,Weather View 32 v70,2013-01-05 04:05:00,
2013-01-04 23:10:00,32.0,25.0,29.29,WSW,247,2.0,12.0,75,0.00,,,0.00,Weather View 32 v70,2013-01-05 04:10:00,
2013-01-04 23:15:00,32.0,25.0,29.29,WSW,247,3.0,12.0,75,0.00,,,0.00,Weather View 32 v70,2013-01-05 04:15:00,
2013-01-04 23:20:00,32.0,25.0,29.29,West,270,3.0,12.0,75,0.00,,,0.00,Weather View 32 v70,2013-01-05 04:20:00,
2013-01-04 23:25:00,32.0,25.3,29.29,West,270,1.0,12.0,76,0.00,,,0.00,Weather View 32 v70,2013-01-05 04:25:00,
2013-01-04 23:30:00,32.0,25.3,29.29,WNW,292,4.0,12.0,76,0.00,,,0.00,Weather View 32 v70,2013-01-05 04:30:00,
2013-01-04 23:35:00,32.0,25.3,29.28,SW,225,5.0,12.0,76,0.00,,,0.00,Weather View 32 v70,2013-01-05 04:35:00,
2013-01-04 23:40:00,31.0,24.6,29.28,WNW,292,6.0,12.0,77,0.00,,,0.00,Weather View 32 v70,2013-01-05 04:40:00,
2013-01-04 23:45:00,32.0,25.3,29.28,WSW,247,1.0,12.0,76,0.00,,,0.00,Weather View 32 v70,2013-01-05 04:45:00,
2013-01-04 23:50:00,32.0,25.3,29.28,WSW,247,2.0,12.0,76,0.00,,,0.00,Weather View 32 v70,2013-01-05 04:50:00,
2013-01-04 23:55:00,32.0,25.6,29.28,West,270,1.0,12.0,77,0.00,,,0.00,Weather View 32 v70,2013-01-05 04:55:00,